Regional Weather Roundup
Issued by NWS

Home | Current Version | Previous Version | Graphics & Text | Print | Product List | Glossary On
Versions: 1 2 3 4 5 6 7 8 9 10 11 12 13 14 15 16 17 18 19 20 21 22 23 24 25 26 27 28 29 30 31 32 33 34 35 36 37 38 39 40 41 42 43 44 45 46 47 48 49 50
000
ASUS45 KSLC 310410
RWRUT

UTAH REGIONAL WEATHER ROUNDUP
NATIONAL WEATHER SERVICE SALT LAKE CITY UT
1000 PM MDT THU JUL 30 2015

UTZ001>011-023>025-310500-

NORTHERN UTAH

CITY           SKY/WX    TMP DP  RH WIND       PRES   REMARKS
BRIGHAM CITY   PTCLDY    79  34  19 CALM      30.22R
HILL AFB       PTCLDY    76  32  20 E9        30.25R
LOGAN          CLEAR     67  42  40 NW6       30.24R
OGDEN          PTCLDY    76  36  23 S3        30.22R
PROVO AIRPORT  PTCLDY    73  46  38 NW9       30.22S
SALT LAKE CITY PTCLDY    77  36  22 S5        30.20R
VERNAL         PTCLDY    74  27  17 NW6       30.25R
WENDOVER       PTCLDY    81  27  13 W5        30.20S
HEBER CITY     PTCLDY    59  34  38 SE3       30.32R
WEST JORDAN    CLEAR     75  30  19 W8        30.24R

$$

UTZ012>022-026-027-310500-

SOUTHERN/CENTRAL UTAH

CITY           SKY/WX    TMP DP  RH WIND       PRES   REMARKS
BLANDING       MOCLDY    71  42  35 CALM      30.39R
BRYCE CANYON   MOCLDY    64  41  42 W5        30.45R
CEDAR CITY     PTCLDY    74  42  31 W3        30.27R
DELTA          CLEAR     78  26  14 NE7       30.22R
HANKSVILLE     PTCLDY    77  23  13 CALM      30.16S
MILFORD        PTCLDY    75  21  13 N7        30.20R
MOAB/CYNLANDS  CLEAR     79  22  12 W3        30.14R
PRICE          CLEAR     79  19  10 NW9       30.30R
ST GEORGE      PTCLDY    91  45  19 E3        30.06R
KANAB          CLOUDY    75  50  41 CALM      30.27R

$$

REGIONAL REPORTS     COLORADO/ARIZONA

CITY           SKY/WX    TMP DP  RH WIND       PRES   REMARKS
CRAIG, CO      PTCLDY    62  29  28 CALM      30.34R
GRAND JUNCTION PTCLDY    81  24  12 N10       30.17R
RIFLE          PTCLDY    72  27  18 S6        30.25R
MONTROSE       PTCLDY    72  42  34 SE7       30.28R
CORTEZ         CLEAR     71  53  52 SW8       30.32S
PAGE, AZ       MOCLDY    85  51  31 S7        30.15R
GRAND CANYON   CLOUDY    71  47  42 E3        30.38R
KINGMAN        CLOUDY    81  52  36 SE8       30.15R
FLAGSTAFF      MOCLDY    58  57  97 CALM      30.42R

$$

REGIONAL REPORTS    NEVADA/IDAHO/WYOMING

CITY           SKY/WX    TMP DP  RH WIND       PRES   REMARKS
LAS VEGAS, NV  CLOUDY    93  55  27 S15G28    30.00S HX  91
ELY            PTCLDY    74  20  13 NW10      30.30R
ELKO           MOCLDY    80  23  12 E8        30.24R
POCATELLO, ID  CLEAR     71  32  23 E9        30.24R
BURLEY         PTCLDY    68  37  32 SW7       30.21R
EVANSTON, WY   PTCLDY    69  22  16 N10       30.44R
ROCK SPRINGS   CLEAR     73  16  11 CALM      30.39R
KEMMERER       CLEAR     63  25  23 NW12      30.46R

$$



USA.gov is the U.S. government's official web portal to all federal, state and local government web resources and services.